TimeCST,TemperatureF,Dew PointF,Humidity,Sea Level PressureIn,VisibilityMPH,Wind Direction,Wind SpeedMPH,Gust SpeedMPH,PrecipitationIn,Events,Conditions,WindDirDegrees,DateUTC
12:15 AM,8.6,1.4,73,30.06,10.0,SW,15.0,-,N/A,,Scattered Clouds,220,2013-12-10 06:15:00
12:35 AM,10.4,3.2,73,30.06,10.0,SW,15.0,-,N/A,,Mostly Cloudy,220,2013-12-10 06:35:00
12:55 AM,12.2,5.0,73,30.05,10.0,SW,18.4,-,N/A,,Overcast,220,2013-12-10 06:55:00
1:15 AM,12.2,3.2,67,30.04,10.0,SSW,15.0,-,N/A,,Mostly Cloudy,210,2013-12-10 07:15:00
1:35 AM,10.4,3.2,73,30.05,10.0,SW,13.8,-,N/A,,Partly Cloudy,220,2013-12-10 07:35:00
1:55 AM,12.2,3.2,67,30.05,10.0,SSW,9.2,-,N/A,,Clear,210,2013-12-10 07:55:00
2:15 AM,12.2,3.2,67,30.04,10.0,SSW,11.5,-,N/A,,Partly Cloudy,200,2013-12-10 08:15:00
2:35 AM,12.2,3.2,67,30.05,10.0,SW,11.5,-,N/A,,Partly Cloudy,220,2013-12-10 08:35:00
2:55 AM,14.0,5.0,67,30.05,10.0,SW,11.5,-,N/A,,Clear,230,2013-12-10 08:55:00
3:15 AM,14.0,6.8,73,30.05,10.0,SW,11.5,-,N/A,,Scattered Clouds,230,2013-12-10 09:15:00
3:35 AM,15.8,8.6,73,30.05,10.0,WSW,15.0,-,N/A,,Mostly Cloudy,240,2013-12-10 09:35:00
4:35 AM,19.4,10.4,68,30.05,10.0,West,18.4,-,N/A,,Scattered Clouds,260,2013-12-10 10:35:00
4:55 AM,19.4,10.4,68,30.06,10.0,WSW,17.3,-,N/A,,Mostly Cloudy,250,2013-12-10 10:55:00
5:15 AM,21.2,12.2,68,30.08,10.0,WNW,13.8,21.9,N/A,,Overcast,290,2013-12-10 11:15:00
5:35 AM,19.4,12.2,74,30.10,10.0,WNW,12.7,18.4,N/A,,Overcast,300,2013-12-10 11:35:00
5:55 AM,19.4,8.6,63,30.11,10.0,NW,19.6,25.3,N/A,Snow,Light Snow,320,2013-12-10 11:55:00
6:15 AM,17.6,6.8,63,30.12,10.0,WNW,19.6,25.3,N/A,,Partly Cloudy,300,2013-12-10 12:15:00
6:35 AM,17.6,5.0,58,30.12,10.0,WNW,18.4,24.2,N/A,,Clear,300,2013-12-10 12:35:00
6:55 AM,15.8,3.2,58,30.15,10.0,NW,19.6,26.5,N/A,,Clear,310,2013-12-10 12:55:00
7:15 AM,14.0,3.2,62,30.15,10.0,NW,12.7,-,N/A,,Clear,310,2013-12-10 13:15:00
7:35 AM,12.2,3.2,67,30.16,10.0,WNW,12.7,-,N/A,,Clear,300,2013-12-10 13:35:00
7:55 AM,12.2,3.2,67,30.16,10.0,WNW,15.0,-,N/A,,Clear,300,2013-12-10 13:55:00
8:15 AM,14.0,5.0,67,30.17,-9999.0,WNW,15.0,-,N/A,,Clear,300,2013-12-10 14:15:00
8:35 AM,14.0,5.0,67,30.20,10.0,NW,12.7,-,N/A,,Clear,310,2013-12-10 14:35:00
8:55 AM,14.0,5.0,67,30.21,10.0,WNW,17.3,23.0,N/A,,Clear,300,2013-12-10 14:55:00
9:15 AM,15.8,5.0,62,30.23,10.0,WNW,11.5,21.9,N/A,,Clear,300,2013-12-10 15:15:00
9:35 AM,15.8,5.0,62,30.24,10.0,NW,11.5,-,N/A,,Clear,310,2013-12-10 15:35:00
9:55 AM,15.8,5.0,62,30.25,10.0,NW,12.7,18.4,N/A,Snow,Light Snow,310,2013-12-10 15:55:00
10:15 AM,15.8,5.0,62,30.25,10.0,WNW,13.8,-,N/A,,Clear,300,2013-12-10 16:15:00
10:35 AM,15.8,5.0,62,30.24,10.0,NW,11.5,19.6,N/A,,Clear,310,2013-12-10 16:35:00
10:55 AM,17.6,5.0,58,30.25,10.0,West,11.5,-,N/A,,Clear,280,2013-12-10 16:55:00
11:15 AM,17.6,6.8,63,30.24,10.0,WNW,10.4,-,N/A,,Clear,290,2013-12-10 17:15:00
11:35 AM,17.6,6.8,63,30.23,10.0,WNW,10.4,-,N/A,,Clear,300,2013-12-10 17:35:00
11:55 AM,19.4,6.8,58,30.24,10.0,WNW,11.5,-,N/A,,Clear,290,2013-12-10 17:55:00
12:15 PM,19.4,6.8,58,30.21,10.0,West,10.4,-,N/A,,Clear,270,2013-12-10 18:15:00
12:35 PM,19.4,8.6,63,30.21,10.0,WSW,9.2,-,N/A,,Clear,250,2013-12-10 18:35:00
12:55 PM,19.4,8.6,63,30.20,10.0,WSW,10.4,-,N/A,,Clear,240,2013-12-10 18:55:00
1:15 PM,19.4,6.8,58,30.20,10.0,WSW,9.2,15.0,N/A,,Clear,250,2013-12-10 19:15:00
1:35 PM,21.2,8.6,58,30.18,10.0,SSW,10.4,-,N/A,,Clear,210,2013-12-10 19:35:00
1:55 PM,21.2,10.4,63,30.17,10.0,SSW,10.4,-,N/A,,Clear,210,2013-12-10 19:55:00
2:15 PM,21.2,10.4,63,30.15,10.0,South,9.2,-,N/A,,Clear,190,2013-12-10 20:15:00
2:35 PM,21.2,10.4,63,30.15,10.0,SSW,6.9,-,N/A,,Clear,200,2013-12-10 20:35:00
2:55 PM,21.2,10.4,63,30.17,10.0,South,6.9,-,N/A,,Clear,180,2013-12-10 20:55:00
3:15 PM,21.2,10.4,63,30.18,10.0,SSW,6.9,-,N/A,,Clear,200,2013-12-10 21:15:00
3:35 PM,21.2,10.4,63,30.16,10.0,SSE,3.5,-,N/A,,Clear,160,2013-12-10 21:35:00
3:55 PM,21.2,12.2,68,30.16,10.0,SSE,4.6,-,N/A,,Clear,160,2013-12-10 21:55:00
4:15 PM,21.2,12.2,68,30.17,10.0,South,4.6,-,N/A,,Clear,190,2013-12-10 22:15:00
4:35 PM,21.2,12.2,68,30.17,10.0,South,4.6,-,N/A,,Clear,170,2013-12-10 22:35:00
4:55 PM,21.2,12.2,68,30.17,10.0,SSE,4.6,-,N/A,,Mostly Cloudy,160,2013-12-10 22:55:00
5:15 PM,19.4,12.2,74,30.16,10.0,SE,4.6,-,N/A,,Scattered Clouds,140,2013-12-10 23:15:00
5:35 PM,19.4,12.2,74,30.17,10.0,South,4.6,-,N/A,,Clear,170,2013-12-10 23:35:00
5:55 PM,19.4,12.2,74,30.17,10.0,South,5.8,-,N/A,,Partly Cloudy,170,2013-12-10 23:55:00
6:15 PM,19.4,12.2,74,30.17,10.0,South,8.1,-,N/A,,Mostly Cloudy,170,2013-12-11 00:15:00
6:35 PM,21.2,14.0,74,30.17,10.0,South,8.1,-,N/A,,Overcast,170,2013-12-11 00:35:00
6:55 PM,21.2,14.0,74,30.17,10.0,South,4.6,-,N/A,,Overcast,180,2013-12-11 00:55:00
7:15 PM,21.2,15.8,80,30.16,10.0,SSE,5.8,-,N/A,,Overcast,160,2013-12-11 01:15:00
7:35 PM,21.2,15.8,80,30.16,10.0,South,4.6,-,N/A,,Overcast,180,2013-12-11 01:35:00
7:55 PM,23.0,15.8,74,30.17,10.0,SSW,8.1,-,N/A,,Overcast,200,2013-12-11 01:55:00
8:15 PM,23.0,15.8,74,30.16,10.0,South,10.4,-,N/A,,Mostly Cloudy,190,2013-12-11 02:15:00
8:35 PM,23.0,15.8,74,30.16,10.0,SSW,9.2,-,N/A,,Overcast,200,2013-12-11 02:35:00
8:55 PM,23.0,17.6,80,30.16,10.0,SSW,11.5,-,N/A,,Overcast,200,2013-12-11 02:55:00
9:15 PM,23.0,17.6,80,30.17,10.0,SSW,6.9,13.8,N/A,,Overcast,210,2013-12-11 03:15:00
9:35 PM,23.0,17.6,80,30.18,10.0,SSW,6.9,-,N/A,,Overcast,210,2013-12-11 03:35:00
9:55 PM,24.8,17.6,74,30.19,9.0,SW,8.1,-,N/A,,Overcast,230,2013-12-11 03:55:00
10:15 PM,24.8,21.2,86,30.19,1.2,SW,12.7,-,N/A,Snow,Light Snow,230,2013-12-11 04:15:00
10:35 PM,24.8,23.0,93,30.20,2.5,SW,11.5,-,N/A,Snow,Light Snow,230,2013-12-11 04:35:00
10:55 PM,24.8,23.0,93,30.21,1.5,WSW,10.4,-,N/A,Snow,Light Snow,240,2013-12-11 04:55:00
11:15 PM,24.8,23.0,93,30.22,3.0,WSW,11.5,-,N/A,Snow,Light Snow,250,2013-12-11 05:15:00
11:35 PM,24.8,23.0,93,30.23,5.0,West,10.4,-,N/A,Rain,Freezing Rain,260,2013-12-11 05:35:00
11:55 PM,26.6,24.8,93,30.24,3.0,West,11.5,-,N/A,Snow,Light Snow,280,2013-12-11 05:55:00